TimeEDT,TemperatureF,Dew PointF,Humidity,Sea Level PressureIn,VisibilityMPH,Wind Direction,Wind SpeedMPH,Gust SpeedMPH,PrecipitationIn,Events,Conditions,WindDirDegrees,DateUTC
12:14 AM,54.5,53.6,97,29.95,3.0,ENE,5.8,-,0.05,Rain,Heavy Rain,70,2012-10-23 04:14:00
12:34 AM,54.5,53.8,97,29.95,3.0,East,5.8,-,0.10,Rain,Light Rain,80,2012-10-23 04:34:00
12:53 AM,54.5,54.0,98,29.95,2.5,ENE,4.6,-,0.12,Rain,Rain,70,2012-10-23 04:53:00
1:13 AM,54.5,54.0,98,29.94,2.0,ENE,4.6,-,0.01,Rain,Rain,70,2012-10-23 05:13:00
1:34 AM,54.7,54.5,99,29.93,2.0,ENE,4.6,-,0.01,,Light Drizzle,60,2012-10-23 05:34:00
1:53 AM,54.9,54.5,99,29.93,2.0,ENE,3.5,-,0.01,,Drizzle,60,2012-10-23 05:53:00
2:13 AM,55.6,55.2,99,29.92,2.0,NE,4.6,-,N/A,,Drizzle,50,2012-10-23 06:13:00
2:34 AM,55.9,55.6,99,29.92,2.0,ENE,3.5,-,N/A,Rain,Rain,60,2012-10-23 06:34:00
2:53 AM,56.3,55.8,98,29.91,2.0,ENE,3.5,-,N/A,,Drizzle,60,2012-10-23 06:53:00
3:14 AM,56.5,56.3,99,29.91,2.0,ENE,3.5,-,N/A,Rain,Rain,60,2012-10-23 07:14:00
3:33 AM,56.7,56.3,99,29.90,1.5,NE,3.5,-,0.01,,Heavy Drizzle,50,2012-10-23 07:33:00
3:53 AM,57.4,57.2,99,29.89,2.5,ENE,5.8,-,0.01,,Light Drizzle,60,2012-10-23 07:53:00
4:14 AM,57.7,57.4,99,29.89,3.0,NE,5.8,-,N/A,,Overcast,50,2012-10-23 08:14:00
4:33 AM,57.9,57.4,98,29.89,3.0,NE,5.8,-,N/A,,Overcast,50,2012-10-23 08:33:00
4:53 AM,57.6,57.2,99,29.89,2.5,NE,5.8,-,N/A,,Overcast,50,2012-10-23 08:53:00
5:13 AM,57.6,57.2,99,29.89,2.5,NE,5.8,-,N/A,,Overcast,50,2012-10-23 09:13:00
5:33 AM,57.6,57.2,99,29.90,2.5,Calm,Calm,-,N/A,,Overcast,0,2012-10-23 09:33:00
6:18 AM,57.2,57.2,100,29.91,1.2,NE,5.8,-,N/A,,Overcast,40,2012-10-23 10:18:00
6:21 AM,57.4,57.2,99,29.91,1.2,NE,6.9,-,N/A,,Overcast,40,2012-10-23 10:21:00
6:34 AM,57.2,57.2,100,29.91,2.5,NE,5.8,-,N/A,,Overcast,40,2012-10-23 10:34:00
6:40 AM,57.2,57.2,100,29.92,3.0,NNE,5.8,-,N/A,,Overcast,30,2012-10-23 10:40:00
7:34 AM,56.7,56.3,99,29.94,2.5,North,5.8,-,N/A,,Overcast,10,2012-10-23 11:34:00
7:53 AM,56.5,56.3,99,29.94,3.0,NNE,6.9,-,N/A,,Overcast,30,2012-10-23 11:53:00
8:10 AM,56.5,56.3,99,29.94,2.0,North,6.9,-,N/A,,Overcast,10,2012-10-23 12:10:00
8:34 AM,56.3,55.9,99,29.94,2.0,Calm,Calm,-,N/A,,Overcast,0,2012-10-23 12:34:00
8:53 AM,56.5,56.3,99,29.94,2.0,North,4.6,-,N/A,,Overcast,10,2012-10-23 12:53:00
9:14 AM,56.7,56.3,99,29.94,2.0,NE,4.6,-,N/A,,Overcast,40,2012-10-23 13:14:00
9:33 AM,56.7,56.3,99,29.94,4.0,NE,8.1,-,N/A,,Overcast,50,2012-10-23 13:33:00
9:53 AM,56.3,55.6,97,29.94,2.5,NE,6.9,16.1,N/A,,Overcast,50,2012-10-23 13:53:00
10:14 AM,55.8,55.4,99,29.95,1.8,NE,9.2,-,N/A,,Overcast,50,2012-10-23 14:14:00
10:33 AM,55.4,55.0,99,29.96,1.0,NE,9.2,-,N/A,,Overcast,50,2012-10-23 14:33:00
10:54 AM,55.4,55.0,99,29.98,1.2,NNE,5.8,-,N/A,,Overcast,30,2012-10-23 14:54:00
11:13 AM,55.4,55.2,99,29.99,1.5,NE,5.8,-,N/A,,Overcast,40,2012-10-23 15:13:00
11:54 AM,55.8,55.4,99,30.00,2.0,Calm,Calm,-,N/A,,Overcast,0,2012-10-23 15:54:00
12:13 PM,55.9,55.6,99,29.99,3.0,ENE,4.6,-,N/A,,Overcast,70,2012-10-23 16:13:00
12:34 PM,56.1,55.6,98,29.99,3.0,Calm,Calm,-,N/A,,Overcast,0,2012-10-23 16:34:00
12:54 PM,56.3,55.8,98,29.98,3.0,Calm,Calm,-,N/A,,Overcast,0,2012-10-23 16:54:00
1:13 PM,56.3,55.6,97,29.98,2.5,Calm,Calm,-,N/A,,Overcast,0,2012-10-23 17:13:00
1:34 PM,56.3,55.8,98,29.98,2.5,Calm,Calm,-,N/A,,Overcast,0,2012-10-23 17:34:00
1:53 PM,56.5,55.8,97,29.98,2.5,Calm,Calm,-,N/A,,Overcast,0,2012-10-23 17:53:00
2:33 PM,57.2,56.5,97,29.95,2.0,NE,3.5,-,N/A,,Overcast,50,2012-10-23 18:33:00
2:53 PM,57.2,56.5,97,29.95,3.0,NE,4.6,-,N/A,,Overcast,40,2012-10-23 18:53:00
3:14 PM,57.2,56.3,97,29.94,4.0,NNE,3.5,-,N/A,,Overcast,30,2012-10-23 19:14:00
3:34 PM,56.7,55.8,97,29.95,2.5,NNE,5.8,-,N/A,,Overcast,30,2012-10-23 19:34:00
3:53 PM,56.7,55.8,97,29.95,3.0,NE,5.8,-,N/A,,Overcast,50,2012-10-23 19:53:00
4:14 PM,56.5,55.4,96,29.97,4.0,Calm,Calm,-,N/A,,Overcast,0,2012-10-23 20:14:00
4:34 PM,56.3,55.4,97,29.96,4.0,ENE,5.8,-,N/A,,Overcast,60,2012-10-23 20:34:00
4:53 PM,56.1,55.0,96,29.95,3.0,NE,4.6,-,N/A,,Overcast,40,2012-10-23 20:53:00
5:14 PM,55.9,55.4,98,29.95,2.0,NE,3.5,-,N/A,,Overcast,50,2012-10-23 21:14:00
5:33 PM,55.8,55.0,97,29.97,2.0,ENE,4.6,-,N/A,,Overcast,60,2012-10-23 21:33:00
5:54 PM,55.6,55.0,98,29.97,1.8,NE,5.8,-,N/A,,Overcast,50,2012-10-23 21:54:00
6:14 PM,55.4,54.9,98,29.97,1.5,ENE,4.6,-,N/A,,Overcast,60,2012-10-23 22:14:00
6:33 PM,55.4,54.9,98,29.98,2.0,Calm,Calm,-,N/A,,Overcast,0,2012-10-23 22:33:00
6:54 PM,55.4,55.0,99,29.99,2.0,Calm,Calm,-,N/A,,Overcast,0,2012-10-23 22:54:00
7:13 PM,55.4,55.2,99,30.02,3.0,WNW,4.6,-,N/A,,Overcast,290,2012-10-23 23:13:00
7:34 PM,55.4,54.9,98,29.99,2.0,ENE,4.6,-,N/A,,Drizzle,60,2012-10-23 23:34:00
7:54 PM,55.0,54.7,99,29.99,2.5,NE,3.5,-,0.01,Rain,Light Rain,50,2012-10-23 23:54:00
8:13 PM,55.0,54.7,99,29.98,3.0,NE,5.8,-,N/A,Rain,Rain,50,2012-10-24 00:13:00
8:34 PM,54.9,54.5,99,29.98,5.0,ENE,6.9,-,N/A,,Light Drizzle,60,2012-10-24 00:34:00
8:53 PM,55.0,54.7,99,29.99,5.0,ENE,5.8,-,N/A,,Light Drizzle,60,2012-10-24 00:53:00
9:14 PM,54.9,54.5,99,29.99,4.0,NE,4.6,-,N/A,Rain,Rain,40,2012-10-24 01:14:00
9:34 PM,54.9,54.5,99,30.00,4.0,NE,3.5,-,N/A,,Overcast,40,2012-10-24 01:34:00
9:53 PM,54.9,54.5,99,30.00,2.5,ENE,3.5,-,N/A,,Overcast,60,2012-10-24 01:53:00
10:14 PM,54.9,54.5,99,30.00,2.0,ENE,3.5,-,N/A,,Overcast,60,2012-10-24 02:14:00
10:34 PM,55.0,54.7,99,30.00,1.0,NE,3.5,-,N/A,,Overcast,50,2012-10-24 02:34:00
10:53 PM,55.0,54.9,99,30.00,0.5,NE,4.6,-,N/A,Fog,Fog,50,2012-10-24 02:53:00
11:14 PM,55.0,54.9,99,29.99,0.5,ENE,4.6,-,N/A,Fog,Fog,60,2012-10-24 03:14:00
11:34 PM,55.0,54.9,99,29.99,0.5,ENE,3.5,-,N/A,Rain,Light Rain,60,2012-10-24 03:34:00
11:53 PM,55.0,54.9,99,30.00,0.5,Calm,Calm,-,N/A,Fog,Fog,0,2012-10-24 03:53:00